WA9AFM-10 Weather Reports


Display with metric or nautical units.
time (UTC)temp
F
wind
direction
speed
MPH
gust
MPH
rain 1hr
in
rain 24hr
in
rain mn
in
humidity
%
barometer
mb
20260510201149 57 228 1.0 0.0 0.00 0.00 0.00 98 1014.5
20260510194149 57 168 0.0 0.0 0.00 0.00 0.00 98 1016.2
20260510191148 58 202 0.0 0.0 0.00 0.00 0.00 98 1015.5
20260510184148 57 230 0.0 0.0 0.00 0.00 0.00 98 1014.7
20260510174149 58 181 0.0 0.0 0.00 0.00 0.00 98 1015.6
20260510171149 59 204 1.0 0.0 0.00 0.00 0.00 98 1014.0
20260510164148 58 145 0.0 0.0 0.00 0.00 0.00 98 1013.8
20260510161148 59 213 0.0 0.0 0.00 0.00 0.00 98 1014.6
20260510155220 59 109 1.0 0.0 0.00 0.00 0.00 98 1014.1
20260510154149 59 109 1.0 0.0 0.00 0.00 0.00 98 1014.1
20260510151149 59 208 0.0 0.0 0.00 0.00 0.00 98 1012.1
20260510144148 59 266 0.0 0.0 0.00 0.00 0.00 98 1011.6
20260510134224 58 213 0.0 0.0 0.00 0.00 0.00 98 1011.4
20260510134149 58 213 0.0 0.0 0.00 0.00 0.00 98 1011.4
20260510124148 58 145 1.0 0.0 0.00 0.00 0.00 98 1011.2
20260510114149 59 132 1.0 0.0 0.00 0.00 0.00 98 1011.3
20260510104148 60 42 1.0 0.0 0.00 0.00 0.00 98 1006.9
20260510101148 60 318 0.0 0.0 0.00 0.00 0.00 98 1005.8
20260510094149 60 321 0.0 0.0 0.00 0.00 0.00 98 1005.7
20260510091147 60 329 0.0 0.0 0.00 0.00 0.00 97 1005.9
20260510081149 60 305 1.0 0.0 0.00 0.00 0.00 97 1006.9
20260510074149 60 308 0.0 0.0 0.00 0.00 0.00 97 1006.6
20260510071149 59 303 5.0 0.0 0.00 0.00 0.00 97 1006.9
20260510064147 60 205 4.0 0.0 0.00 0.00 0.00 97 1008.0
20260510061149 60 166 0.0 0.0 0.00 0.00 0.00 97 1010.0
20260510054148 61 200 3.0 0.0 0.00 0.00 0.00 96 1008.6
20260510051148 62 258 3.0 0.0 0.00 0.00 0.00 95 1005.9
20260510044148 63 232 0.0 0.0 0.00 0.00 0.00 91 1009.0
20260510041148 71 92 0.0 0.0 0.00 0.00 0.00 63 1008.6
20260510034149 75 181 0.0 0.0 0.00 0.00 0.00 58 1004.0
20260510031149 75 286 6.0 0.0 0.00 0.00 0.00 56 1003.0
20260510024147 75 339 3.0 0.0 0.00 0.00 0.00 54 1004.6
20260510021148 76 317 0.0 0.0 0.00 0.00 0.00 51 1003.6
20260510014149 77 300 0.0 0.0 0.00 0.00 0.00 51 1002.7
20260510011149 79 285 0.0 0.0 0.00 0.00 0.00 48 1002.5
20260510004149 80 329 0.0 0.0 0.00 0.00 0.00 45 1002.4
20260510001149 81 343 2.0 0.0 0.00 0.00 0.00 42 1002.4
20260509234148 83 357 1.0 0.0 0.00 0.00 0.00 42 1002.5
20260509224149 87 24 0.0 0.0 0.00 0.00 0.00 40 1003.2
20260509214147 88 353 1.0 0.0 0.00 0.00 0.00 38 1003.3
20260509211148 87 327 4.0 0.0 0.00 0.00 0.00 37 1003.8
20260509204148 86 312 1.0 0.0 0.00 0.00 0.00 38 1004.0